Flag for Germany Weather past 2 weeks in Detmold, North Rhine-Westphalia, Germany

Now
66 °F

Overcast.


Feels Like: 66 °F
Forecast: 56 / 75 °F
Wind: 3 mph from Northwest

Location: Bad Lippspringe

Current Time: Jul 30, 2014 at 12:22:46 PM

Latest Report: Jul 30, 2014 at 12:00 PM


Visibility: 9 mi

Pressure: 29.85 "Hg

Humidity: 85%

Dew point: 61 °F

Location of DetmoldLocation

Historic Weather in Detmold — Graph

°F

Detmold temperature yesterday

Maximum temperature yesterday: 79 °F (at 5:00 PM)
Minimum temperature yesterday: 61 °F (at 5:00 AM)
Average temperature yesterday: 69 °F

Past Weeks' High & Low Weather Summary

 TemperatureHumidityPressure
High90 °F (Jul 19, 4:00 PM)98% (Jul 26, 5:00 AM)30.19 "Hg (Jul 26, 5:00 AM)
Low56 °F (Jul 16, 3:00 AM)28% (Jul 19, 3:00 PM)29.74 "Hg (Jul 29, 7:00 PM)
Average70 °F72%29.97 "Hg
* Reported Jul 15 11:00 AM — Jul 30 11:00 AM, Detmold, Weather by CustomWeather, © 2014

Note: Actual official high and low records may vary slightly from our data, if they occured in-between our weather recording intervals... More about our weather records

Advertising

Detmold weather history for previous 24 hours

 ConditionsComfort  
Time TempWeatherWind HumidityBarometerVisibility
11:00 AM
Jul 30
65 °FLow clouds.2 mph91%29.84 "Hg5 mi
10:00 AM64 °FLow clouds.2 mph94%29.83 "Hg4 mi
9:00 AM64 °FDrizzle. Low clouds.3 mph94%29.82 "Hg5 mi
8:00 AM64 °FLow clouds.2 mph93%29.80 "Hg4 mi
7:00 AM64 °FFog.2 mph92%29.79 "Hg4 mi
6:00 AM64 °FLow clouds.2 mph92%29.78 "Hg4 mi
5:00 AM65 °FFog.3 mph92%29.78 "Hg4 mi
4:00 AM65 °FLow clouds.3 mph95%29.78 "Hg3 mi
3:00 AM66 °FLow clouds.2 mph96%29.78 "Hg2 mi
2:00 AM66 °FOvercast.1 mph94%29.78 "Hg3 mi
1:00 AM66 °FOvercast.2 mph92%29.78 "Hg5 mi
12:00 AM67 °FOvercast.2 mph89%29.78 "Hg7 mi
11:00 PM
Jul 29
69 °FOvercast.3 mph86%29.78 "Hg9 mi
10:00 PM71 °FOvercast.5 mph79%29.77 "Hg7 mi
9:00 PM73 °FOvercast.5 mph74%29.76 "Hg7 mi
8:00 PM76 °FOvercast.2 mph62%29.75 "Hg11 mi
7:00 PM79 °FPassing clouds.3 mph55%29.74 "Hg10 mi
6:00 PM78 °FOvercast.5 mph58%29.76 "Hg9 mi
5:00 PM79 °FOvercast.5 mph61%29.76 "Hg7 mi
4:00 PM76 °FOvercast.3 mph64%29.78 "Hg8 mi
3:00 PM74 °FOvercast.2 mph72%29.80 "Hg10 mi
2:00 PM71 °FLight rain. Passing clouds.2 mph84%29.82 "Hg5 mi
1:00 PM68 °FLight rain. Partly sunny.1 mph91%29.84 "Hg3 mi
12:00 PM68 °FDrizzle. Overcast.3 mph82%29.85 "Hg7 mi
Weather by CustomWeather, © 2014

See weather overviewHow to use our weather pages